Regional Weather Roundup
Issued by NWS Cleveland, OH

Home | Current Version | Previous Version | Text Only | Print | Product List | Glossary Off
Versions: 1 2 3 4 5 6 7 8 9 10 11 12 13 14 15 16 17 18 19 20 21 22 23 24 25 26 27 28 29 30 31 32 33 34 35 36 37 38 39 40 41 42 43 44 45 46 47 48 49 50

000
ASUS41 KCLE 060102
RWRCLE
OHIO REGIONAL WEATHER ROUNDUP
NATIONAL WEATHER SERVICE CLEVELAND, OH
900 PM EDT TUE MAY 05 2015

NOTE: "FAIR" INDICATES FEW OR NO CLOUDS BELOW 12,000 FEET WITH NO
SIGNIFICANT WEATHER AND/OR OBSTRUCTIONS TO VISIBILITY.

OHZ001>008-015>018-024>027-034-035-043-044-060200-
   NORTHWEST OHIO

CITY           SKY/WX    TMP DP  RH WIND       PRES   REMARKS
DEFIANCE       CLOUDY    56  52  86 NE9       30.24R FOG
FINDLAY        MOCLDY    56  51  84 NE15      30.21R
TOLEDO EXPRESS CLOUDY    52  48  86 NE10      30.26R
TOLEDO EXEC    CLOUDY    52  47  83 NE9       30.27R
LIMA           CLEAR     63  57  81 NE14      30.20R
$$

OHZ009>014-019>023-028>033-038-089-060200-
   NORTHEAST OHIO

CITY           SKY/WX    TMP DP  RH WIND       PRES   REMARKS
CLE-HOPKINS    CLOUDY    53  50  89 N7        30.26S FOG
CLE-LAKEFRONT  CLOUDY    53  50  89 N8        30.24R FOG
CUY CO. ARPT   CLOUDY    57  55  94 E7        30.25R FOG
LORAIN-ELYRIA  CLOUDY    53  51  93 E7        30.24S FOG
ASHTABULA      CLOUDY    53  51  93 CALM      30.26S FOG
AKRON-CANTON   MOCLDY    65  58  78 NE7       30.23R
WOOSTER        PTCLDY    59  56  89 CALM      30.23R
MANSFIELD      CLEAR     60  58  92 NE7       30.21S
YOUNGSTOWN     CLOUDY    61  59  93 NE7       30.24S FOG
$$

OHZ042-051>053-060>062-070>072-077>081-060200-
  SOUTHWEST OHIO

CITY           SKY/WX    TMP DP  RH WIND       PRES   REMARKS
CINC-COVINGTON PTCLDY    73  53  49 S3        30.19R
CINC-LUNKEN    CLEAR     69  58  67 CALM      30.18R
HAMILTON       PTCLDY    69  57  65 CALM      30.19R
DAYTON         PTCLDY    77  52  41 S3        30.19R
WRIGHT-PAT AFB NOT AVBL
DAYTON GENERAL CLEAR     74  52  46 SW3       30.18R
WILMINGTON     CLEAR     71  52  50 S3        30.19R
$$

OHZ036-037-039>041-045>050-054>059-063>069-073>076-082>088-060200-
  CENTRAL AND SOUTHEAST OHIO

CITY           SKY/WX    TMP DP  RH WIND       PRES   REMARKS
COLUMBUS       PTCLDY    74  55  51 CALM      30.18R
OSU AIRPORT    PTCLDY    74  54  49 CALM      30.18S
BOLTON FIELD   NOT AVBL
RICKENBACK AFB NOT AVBL
NEWARK         CLEAR     70  62  76 CALM      30.18R
MARION         CLEAR     64  60  87 NE8       30.19R FOG
LANCASTER      CLEAR     70  53  54 CALM      30.19R
ZANESVILLE     CLEAR     73  55  53 CALM      30.19R
NEW PHILLY     MOCLDY    67  62  84 N3        30.21F
$$


USA.gov is the U.S. government's official web portal to all federal, state and local government web resources and services.